Regional Weather Roundup
Issued by NWS Albany, NY

Home | Current Version | Previous Version | Text Only | Print | Product List | Glossary On
Versions: 1 2 3 4 5 6 7 8 9 10 11 12 13 14 15 16 17 18 19 20 21 22 23 24 25 26 27 28 29 30 31 32 33 34 35 36 37 38 39 40 41 42 43 44 45 46 47 48 49 50
823
ASUS41 KALY 180710
RWRALY

NEW YORK STATE HOURLY WEATHER ROUNDUP
NATIONAL WEATHER SERVICE ALBANY NY
200 AM EST WED JAN 18 2017

NOTE: "FAIR" INDICATES FEW OR NO CLOUDS BELOW 12,000 FEET WITH NO
SIGNIFICANT WEATHER AND/OR NO OBSTRUCTIONS TO VISIBILITY.

NYZ032-033-038>043-046>054-057>066-NYZ062>081-082-084-180800-
EAST


CITY           SKY/WX    TMP DP  RH WIND       PRES   REMARKS
ALBANY         LGTSLEET  33  31  92 CALM      29.96S FOG
GLENS FALLS    LGT RAIN  33  30  88 NE3       29.95F FOG
POUGHKEEPSIE   LGT RAIN  33  32  96 E3        29.93F FOG
NEWBURGH       LGT RAIN  34  34 100 NE6       29.93F FOG     WCI  29
MONTGOMERY     LGT RAIN  34  32  92 N7        29.92F WCI  28
WHITE PLAINS   CLOUDY    37  35  92 E12       29.89F WCI  29
ISLIP          CLOUDY    41  41 100 NE9       29.89F
NEW YORK CITY  DRIZZLE   40  38  93 NE14      29.91F FOG     WCI  32
CENTRAL PARK   CLOUDY    38  37  97 E8        29.92F FOG     WCI  32
$$

NYZ005>009-017-018-044>046-055-056-180800-
CENTRAL


CITY           SKY/WX    TMP DP  RH WIND       PRES   REMARKS
FULTON         CLOUDY    36  35  96 SE5       29.81S FOG     WCI  32
SYRACUSE       LGT RAIN  37  34  89 NE3       29.82S
ROME           LGT RAIN  34  34 100 E9        29.88S FOG     WCI  27
ELMIRA         LGT RAIN  37  34  89 CALM      29.84S VSB 3/4
BINGHAMTON     LGT RAIN  33  33 100 S5        29.83S VSB 1/4 WCI  29
MONTICELLO     CLOUDY    30  30 100 CALM      29.90S
$$

NYZ026>034-041>043-087-180800-
NORTH


CITY           SKY/WX    TMP DP  RH WIND       PRES   REMARKS
WATERTOWN      MIX PCPN  35  35 100 CALM      29.79F FOG
FORT DRUM      NOT AVBL
OGDENSBURG     LGT RAIN  32  32  99 E7        29.84S WCI  26
MASSENA        LGT SNOW  28  26  92 NE7       29.89F FOG     WCI  21
SARANAC LAKE   LGT SNOW  32  29  88 MISG      29.81S FOG
PLATTSBURGH    LGT RAIN  34  32  92 S10       29.94F WCI  26
$$

NYZ001>004-010>016-019>021-085-180800-
WEST


CITY           SKY/WX    TMP DP  RH WIND       PRES   REMARKS
NIAGARA FALLS  CLOUDY    37  35  92 SW8       29.83R FOG     WCI  31
BUFFALO        DRZL/FOG  37  36  96 SW12      29.83R VSB 3/4 WCI  29
DUNKIRK        LGT RAIN  38  37  97 SW17G25   29.87R FOG     WCI  28
JAMESTOWN      CLOUDY    37  36  93 W14       29.84R WCI  29
WELLSVILLE     CLOUDY    42  39  89 W7        29.82R
ROCHESTER      CLOUDY    43  40  89 W14       29.81R
PENN YAN       CLOUDY    40  35  83 SW10      29.82R WCI  33
$$

             KEY
       WCI = WIND CHILL INDEX
       VSB = VISIBILITY
       HX  = HEAT INDEX
$$




USA.gov is the U.S. government's official web portal to all federal, state and local government web resources and services.